STARLINK-3870 (52451 NORAD) Tracking and Keplerian Element Data
This shows tracking and keplerian element data for the satellite.
Feedback or suggestion? Click here.
Element | Value |
Catalog | 52451 |
Name | STARLINK-3870 |
Epoch Orbit | 130 |
Epoch Day | 167.08334491 |
Epoch Year | 2022 |
RAAN | 68.0693 |
Inclination | 53.2174 |
Eccentricity | 0.0001658 |
Argument of Perigee | 42.8606 |
Mean Anonmoly | 4.7855 |
Mean Motion | 15.38108761 |
Decay Rate | -0.00693525 |
L1 | 1 52451U 22049A 22167.08334491 -.00693525 00000+0 -19660-1 0 9998 |
L2 | 2 52451 53.2174 68.0693 0001658 42.8606 4.7855 15.38108761 1302 |
Live tracking and technical data element details for STARLINK-3870 (NORAD 52451). STARLINK-3870 can be tracked NOW for your location showing map with azimuth and elevation plus other details from your city location.
Track the satellite on the map from your city or location and see movement details for azimuth, elevation, latitude, longitude, range, height, and movement on the map or in text.
IsCatalogInMostPopularTable: catalog: 52451, numindb: 2
Update: records affected: 1
GetName: 52451 STARLINK-3870
Hit Count: updated at: Sat, 25 Jun 2022 05:19:01 GMT